Regional Weather Roundup
Issued by NWS

Home | Current Version | Previous Version | Text Only | Print | Product List | Glossary On
Versions: 1 2 3 4 5 6 7 8 9 10 11 12 13 14 15 16 17 18 19 20 21 22 23 24 25 26 27 28 29 30 31 32 33 34 35 36 37 38 39 40 41 42 43 44 45 46 47 48 49 50
000
ASUS43 KTOP 220408
RWRKS

WEATHER ROUNDUP FOR KANSAS
NATIONAL WEATHER SERVICE GOODLAND KS
1000 PM CST FRI NOV 21 2014

NOTE:  "FAIR" INDICATES FEW OR NO CLOUDS BELOW 12,000 FEET WITH NO
SIGNIFICANT WEATHER AND/OR OBSTRUCTIONS TO VISIBILITY.

KSZ001>006-013>018-027>032-041>047-220500-
NORTHWEST KANSAS

CITY           SKY/WX    TMP DP  RH WIND       PRES   REMARKS
GOODLAND       MOCLDY    35  25  66 SW12      29.94S WCI  27
HAYS           MOCLDY    34  28  80 S6        30.00R VSB 3/4
HILL CITY      PTCLDY    27  24  89 CALM      29.98R
RUSSELL        CLOUDY    39  37  92 S7        29.99S FOG
$$

KSZ061>065-074>080-084>089-220500-
SOUTHWEST KANSAS

CITY           SKY/WX    TMP DP  RH WIND       PRES   REMARKS
DODGE CITY     MOCLDY    35  33  92 S12       29.99S FOG     WCI  27
ELKHART          N/A    N/A N/A N/A MISG        N/A
GARDEN CITY    MOCLDY    34  33  96 S9        29.98R
GREAT BEND     CLOUDY    39  36  87 S10       30.01S WCI  32
LIBERAL        PTCLDY    37  28  70 SE6       30.01R
PRATT          FOG       37  37 100 S8        30.02S VSB 3/4
$$

KSZ066>073-081>083-090>101-220500-
SOUTHEAST KANSAS

CITY           SKY/WX    TMP DP  RH WIND       PRES   REMARKS
CHANUTE        CLOUDY    52  51  97 S13       30.07S
COFFEYVILLE    CLOUDY    52  51  97 S12       30.08F FOG
HUTCHINSON       N/A     43  41  93 SW10      30.03S FOG
MEDICINE LODGE   N/A     40  40 100 S7        30.03S
NEWTON         CLOUDY    43  39  87 SW8       30.04F VSB 1/2
PARSONS        CLOUDY    53  52  96 S9        30.08S FOG
WICHITA INTL   FOG       43  42  97 SW6       30.04S VSB 1/8
WICHITA JABRA  FOG       46  45  96 SW7       30.03S VSB 1/2
WINFIELD       FOG       48  48 100 S3        30.06R VSB 1/2
$$

KSZ007>012-019>026-033>040-048>060-102>105-220500-
NORTHEAST KANSAS

CITY           SKY/WX    TMP DP  RH WIND       PRES   REMARKS
CONCORDIA      CLOUDY    37  37 100 CALM      30.01F FOG
EMPORIA        FOG       42  42 100 S6        30.03F VSB 1/4
LAWRENCE       CLOUDY    43  41  93 SE7       30.04F
MANHATTAN      FOG       37  37 100 N3        30.03F VSB 1/2
MARYSVILLE     FOG       36  36 100 S3        30.01F VSB 3/4
OLATHE IND     CLOUDY    48  45  89 S10       30.06S
OLATHE EXE     CLOUDY    48  45  89 S12       30.05S
SALINA         FOG       40  39  97 SE6       30.02F VSB 3/4
TOPEKA BILLARD CLOUDY    42  40  92 CALM      30.04F FOG
TOPEKA FORBES  CLOUDY    43  40  89 SE5       30.02F FOG
$$



USA.gov is the U.S. government's official web portal to all federal, state and local government web resources and services.